Location: Tel Aviv
(32.0670°N, 34.7670°E)
Time: 20:34:26
(UTC+02:00)

CUTE-I - Pass Details

Date: 16 December 2025
Orbit: 805 x 817 km, 98.7° (Epoch: 21 January)

Event Time Altitude Azimuth Distance (km) Brightness Sun altitude
Rises 05:02:46 0° 29° (NNE) 3,344 ? -18.9°
Reaches altitude 10° 05:05:34 10° 43° (NE) 2,409 ? -18.4°
Maximum altitude 05:09:48 24° 96° (E) 1,636 ? -17.5°
Drops below altitude 10° 05:14:02 10° 149° (SSE) 2,401 ? -16.6°
Sets 05:16:48 0° 163° (SSE) 3,329 ? -16.1°
